Regional Weather Roundup
Issued by NWS San Angelo, TX

Home | Current Version | Previous Version | Text Only | Print | Product List | Glossary On
Versions: 1 2 3 4 5 6 7 8 9 10 11 12 13 14 15 16 17 18 19 20 21 22 23 24 25 26 27 28 29 30 31 32 33 34 35 36 37 38 39 40 41 42 43 44 45 46 47 48 49 50
000
ASUS44 KSJT 240510
RWRSJT
WEST CENTRAL TEXAS REGIONAL WEATHER ROUNDUP
NATIONAL WEATHER SERVICE SAN ANGELO TX
1200 AM CDT MON APR 24 2017

NOTE: "FAIR" INDICATES FEW OR NO CLOUDS BELOW 12,000 FEET WITH NO
SIGNIFICANT WEATHER AND/OR OBSTRUCTIONS TO VISIBILITY.

TXZ049-054-064>066-071>073-076>078-098-099-113-114-127-128-139-140-
154-155-168>170-240600
...LOCATIONS ACROSS WEST CENTRAL TEXAS...

CITY           SKY/WX    TMP DP  RH WIND       PRES   REMARKS
SAN ANGELO     CLEAR     55  34  45 S8        30.01R
ABILENE        CLEAR     51  37  58 SE8       29.99F
DYESS AFB      CLEAR     49  39  66 SW6       29.97F
JUNCTION       CLEAR     56  37  49 CALM      30.04R
SWEETWATER     CLEAR     54  36  50 SE9       30.01F
BROWNWOOD      PTCLDY    48  43  81 CALM      30.00F
COLEMAN        CLEAR     55  38  52 CALM      30.00F
SONORA         CLEAR     59  34  38 CALM      30.08R
OZONA            N/A     50  34  53 CALM      30.05S
BRADY          NOT AVBL
$$

TEXAS PANHANDLE/OKLAHOMA PANHANDLE

CITY           SKY/WX    TMP DP  RH WIND       PRES   REMARKS
AMARILLO       CLOUDY    57  33  40 S24G33    29.90F
BORGER         CLEAR     58  31  35 S18G25    29.88F
CANADIAN       CLEAR     56  35  44 S14       29.90F
DALHART        CLEAR     58  37  45 S18       29.87F
DUMAS          CLEAR     53  36  52 S15       29.87F
GUYMON         NOT AVBL
HEREFORD       CLEAR     56  38  50 S12       29.94S
PAMPA          CLEAR     54  33  45 S21G30    29.90F
PERRYTON       CLEAR     55  38  54 S17       29.86F
$$

SOUTHERN PANHANDLE/SOUTH PLAINS/ROLLING PLAINS

CITY           SKY/WX    TMP DP  RH WIND       PRES   REMARKS
LUBBOCK        PTCLDY    57  31  37 S13       29.96F
SNYDER         CLEAR    N/A N/A N/A SE8       29.99S
CHILDRESS      CLEAR     54  36  50 SE10      29.96F
SEMINOLE       CLEAR     51  36  55 CALM      30.00S
$$

PERMIAN BASIN

CITY           SKY/WX    TMP DP  RH WIND       PRES   REMARKS
MIDLAND        CLEAR     59  33  37 SE10      29.99S
ODESSA         CLEAR     62  31  31 S15       30.00S
WINK           CLEAR     62  33  33 SE12      29.96S
$$

FAR WEST/SOUTHWEST MOUNTAINS/TRANS PECOS

CITY           SKY/WX    TMP DP  RH WIND       PRES   REMARKS
ALPINE         CLOUDY    58  32  38 S10       30.11S
DRYDEN           N/A     62  37  39 SE5       30.00F
EL PASO        CLEAR     74  32  21 SE13G26   29.90F
FORT STOCKTON  CLOUDY    62  36  37 S17G23    29.98F
GUADALUPE PASS CLEAR     57  30  35 NE20        N/A
MARFA          CLOUDY    55  32  41 SW3       30.10S
PECOS          CLEAR     64  34  32 SE15      29.96S
$$

DALLAS/FORT WORTH METROPLEX

CITY           SKY/WX    TMP DP  RH WIND       PRES   REMARKS
DFW AIRPORT    CLEAR     60  41  49 SE3       29.98F
FTW MEACHAM    CLEAR     57  46  66 CALM      29.99F
DAL-EXECUTIVE  CLEAR     53  45  74 CALM      29.99F
GRAND PRAIRIE  CLEAR     60  44  56 CALM      30.02F
ADDISON        CLEAR     58  41  52 CALM      30.01F
MESQUITE       CLEAR     53  44  70 CALM      30.00F
LANCASTER      CLEAR     49  46  90 CALM      30.01F
$$

NORTH CENTRAL TEXAS

CITY           SKY/WX    TMP DP  RH WIND       PRES   REMARKS
SHRMAN/DENISON CLEAR     55  40  57 CALM      30.00F
GAINESVILLE    CLEAR     51  44  75 CALM      30.02S
BRIDGEPORT     CLEAR     47  42  83 CALM      30.01F
DENTON         CLEAR     51  47  86 CALM      29.99F
WAXAHACHIE     CLEAR     51  45  80 CALM      30.02F
GRANBURY       CLEAR     49  44  83 CALM      30.01F
$$

WESTERN NORTH TEXAS

CITY           SKY/WX    TMP DP  RH WIND       PRES   REMARKS
WICHITA FALLS  CLEAR     51  38  60 S7        29.97F
VERNON         CLEAR     56  36  47 SE9       29.97F
BRECKENRIDGE   CLEAR     56  37  49 SE10      29.98F
COMANCHE       CLEAR     54  41  60 S3        30.01F
$$

CENTRAL AND SOUTH CENTRAL TEXAS

CITY           SKY/WX    TMP DP  RH WIND       PRES   REMARKS
AUSTIN/BERGSTM CLEAR     50  47  89 CALM      30.01F
WACO           CLEAR     50  48  93 E3        30.00F
HILLSBORO      CLEAR     55  44  67 E7        30.01F
TEMPLE         CLEAR     54  46  74 E5        30.01F
KILLEEN-GRAY   CLEAR     55  44  65 CALM      30.00F
FORT HOOD      CLEAR     56  44  62 CALM      29.98F
GEORGETOWN     CLEAR     54  43  66 CALM      30.02F
LAGO VISTA     FAIR      58  42  54 E6        30.02F
SAN MARCOS     CLEAR     54  45  71 W5        30.04R
NEW BRAUNFELS  CLEAR     52  46  80 W5        30.02R
RANDOLPH AFB   CLEAR     58  45  60 CALM      30.03R
SAN ANTONIO    PTCLDY    59  44  57 E3        30.03S
STINSON        CLEAR     56  46  69 CALM      30.02R
PLEASANTON     NOT AVBL
LA GRANGE      CLEAR     56  52  87 CALM      29.99F
GIDDINGS       CLEAR     52  48  86 CALM      30.02S
$$

EAST TEXAS

CITY           SKY/WX    TMP DP  RH WIND       PRES   REMARKS
PARIS          CLEAR     54  43  66 CALM      29.98F
CLARKSVILLE    NOT AVBL
TYLER          CLEAR     53  48  83 SW3       29.98F
LONGVIEW       CLEAR     51  49  92 S3        29.97F
PALESTINE      CLEAR     50  49  97 CALM      30.01F
NACOGDOCHES    CLEAR     48  43  81 CALM      29.97F
$$

TEXAS HILL COUNTRY AND EDWARDS PLATEAU

CITY           SKY/WX    TMP DP  RH WIND       PRES   REMARKS
LLANO          CLEAR     52  43  71 CALM      30.05S
HORSESHOE BAY  FAIR      55  43  63 S3        30.02S
KERRVILLE      CLEAR     51  46  82 CALM      30.05R
FREDERICKSBRG  CLEAR     46  42  84 CALM      30.04S
ROCKSPRINGS    CLEAR     54  43  66 CALM      30.08R
HONDO          CLEAR     54  45  71 CALM      30.04R
UVALDE         CLEAR     56  47  72 CALM      30.04S
DEL RIO        NOT AVBL
$$

SOUTHEAST TEXAS

CITY           SKY/WX    TMP DP  RH WIND       PRES   REMARKS
COLLEGE STN    CLEAR     56  47  71 CALM      30.01F
CALDWELL       NOT AVBL
CROCKETT       CLEAR     48  48 100 CALM      30.03F
BRENHAM        CLEAR     53  49  86 CALM      30.02F
HUNTSVILLE     CLEAR     54  48  80 CALM      30.00F
CONROE         CLEAR     49  47  93 CALM      30.00F
HOUSTON BUSH   CLEAR     58  50  75 CALM      30.00F
HOUSTON HOBBY  CLEAR     60  49  66 CALM      30.00F
PERLAND        CLEAR     59  51  75 SW3       30.01F
WHARTON        CLEAR     56  48  76 CALM      30.01F
$$

THE UPPER TEXAS COAST

CITY           SKY/WX    TMP DP  RH WIND       PRES   REMARKS
ORANGE         CLEAR     54  54  98 CALM      30.01F
PORT ARTHUR    PTCLDY    56  51  84 CALM      29.98F
GALVESTON      CLEAR     67  52  58 NE6       30.01F
ANGLETON       PTCLDY    55  52  89 N5        30.00F
BAY CITY       CLEAR     58  49  73 CALM      30.01S
$$

TEXAS COASTAL BEND, RIO GRANDE PLAINS DEEP SOUTH TEXAS

CITY           SKY/WX    TMP DP  RH WIND       PRES   REMARKS
VICTORIA       CLEAR     58  49  72 CALM      30.02S
BEEVILLE       FAIR      60  47  62 CALM      30.03S
ROCKPORT       CLEAR     63  48  58 NE6       30.02S
PORT ARANSAS   CLEAR     67  46  45 NE5       30.02S
PORT LAVACA    PTCLDY    59  54  82 CALM      30.02S
CORPUS CHRISTI PTCLDY    67  48  50 NE5       30.03R
KINGSVILLE NAS CLOUDY    59  49  69 E3        30.03S
COTULLA        CLEAR     61  44  53 SE3       30.03S
LAREDO         CLOUDY    65  48  54 SE6       30.04R
BROWNSVILLE    PTCLDY    62  54  74 CALM      30.04S
PORT ISABEL    PTCLDY    60  51  72 CALM      30.03F
HEBBRONVILLE   CLOUDY    59  49  68 CALM      30.04F
MCALLEN        MOCLDY    66  50  56 SE3       30.05R
WESLACO        MOCLDY    65  51  61 S3        30.03S
FALFURRIAS     PTCLDY    60  48  64 CALM      30.03S
EDINBURG       PTCLDY    63  50  62 CALM      30.04S
$$




USA.gov is the U.S. government's official web portal to all federal, state and local government web resources and services.